| time (UTC) | temp F | wind direction | speed knots | gust knots | rain 1hr in | rain 24hr in | rain mn in | humidity % | barometer mb |
| 20260901181527 | 67 | 212 | 1.7 | 5.2 | 0.00 | 0.00 | 0.00 | 66 | 1019.6 |
| 20260901180525 | 67 | 218 | 3.5 | 7.8 | 0.00 | 0.00 | 0.00 | 65 | 1019.8 |
| 20260901171023 | 69 | 196 | 3.5 | 9.6 | 0.00 | 0.00 | 0.00 | 62 | 1019.6 |
| 20260901170021 | 69 | 224 | 3.5 | 7.8 | 0.00 | 0.00 | 0.00 | 63 | 1019.6 |
| 20260901165019 | 69 | 188 | 3.5 | 7.8 | 0.00 | 0.00 | 0.00 | 62 | 1019.5 |
| 20260901164021 | 70 | 220 | 4.3 | 9.6 | 0.00 | 0.00 | 0.00 | 61 | 1019.5 |
| 20260901162533 | 70 | 226 | 3.5 | 7.0 | 0.00 | 0.00 | 0.00 | 59 | 1019.5 |
| 20260901161531 | 70 | 215 | 3.5 | 3.5 | 0.00 | 0.00 | 0.00 | 60 | 1019.5 |
| 20260901154531 | 72 | 232 | 2.6 | 5.2 | 0.00 | 0.00 | 0.00 | 60 | 1019.6 |
| 20260901153549 | 71 | 239 | 5.2 | 9.6 | 0.00 | 0.00 | 0.00 | 61 | 1019.6 |
| 20260901152545 | 71 | 249 | 3.5 | 7.8 | 0.00 | 0.00 | 0.00 | 61 | 1019.7 |
| 20260901151523 | 71 | 243 | 3.5 | 7.8 | 0.00 | 0.00 | 0.00 | 62 | 1019.7 |
| 20260901150542 | 70 | 215 | 2.6 | 6.1 | 0.00 | 0.00 | 0.00 | 63 | 1019.8 |
| 20260901145520 | 70 | 238 | 3.5 | 7.8 | 0.00 | 0.00 | 0.00 | 61 | 1019.9 |
| 20260901144518 | 70 | 219 | 3.5 | 7.8 | 0.00 | 0.00 | 0.00 | 60 | 1019.8 |
| 20260901143516 | 70 | 214 | 3.5 | 9.6 | 0.00 | 0.00 | 0.00 | 60 | 1019.8 |
| 20260901142534 | 71 | 234 | 3.5 | 7.8 | 0.00 | 0.00 | 0.00 | 61 | 1020.0 |
| 20260901141532 | 71 | 226 | 2.6 | 5.2 | 0.00 | 0.00 | 0.00 | 63 | 1020.1 |
| 20260901141018 | 72 | 225 | 4.3 | 7.8 | 0.00 | 0.00 | 0.00 | 60 | 1020.2 |
| 20260901140016 | 73 | 239 | 5.2 | 11.3 | 0.00 | 0.00 | 0.00 | 55 | 1020.0 |
| 20260901135034 | 73 | 216 | 5.2 | 10.4 | 0.00 | 0.00 | 0.00 | 53 | 1020.0 |
| 20260901134033 | 73 | 205 | 5.2 | 9.6 | 0.00 | 0.00 | 0.00 | 53 | 1020.0 |
| 20260901133031 | 73 | 226 | 3.5 | 8.7 | 0.00 | 0.00 | 0.00 | 52 | 1019.8 |
| 20260901132029 | 73 | 206 | 4.3 | 9.6 | 0.00 | 0.00 | 0.00 | 53 | 1020.0 |
| 20260901131027 | 73 | 206 | 4.3 | 11.3 | 0.00 | 0.00 | 0.00 | 53 | 1020.1 |
| 20260901130035 | 73 | 232 | 4.3 | 10.4 | 0.00 | 0.00 | 0.00 | 55 | 1020.2 |
| 20260901125034 | 73 | 235 | 4.3 | 9.6 | 0.00 | 0.00 | 0.00 | 57 | 1020.1 |
| 20260901124031 | 72 | 204 | 4.3 | 10.4 | 0.00 | 0.00 | 0.00 | 58 | 1020.1 |
| 20260901123050 | 72 | 225 | 5.2 | 10.4 | 0.00 | 0.00 | 0.00 | 57 | 1020.1 |
| 20260901122048 | 72 | 224 | 5.2 | 7.8 | 0.00 | 0.00 | 0.00 | 58 | 1020.2 |
| 20260901121521 | 72 | 214 | 3.5 | 7.8 | 0.00 | 0.00 | 0.00 | 58 | 1020.3 |
| 20260901120519 | 73 | 218 | 4.3 | 7.0 | 0.00 | 0.00 | 0.00 | 58 | 1020.2 |
| 20260901115517 | 72 | 193 | 4.3 | 9.6 | 0.00 | 0.00 | 0.00 | 58 | 1020.1 |
| 20260901114516 | 71 | 223 | 4.3 | 9.6 | 0.00 | 0.00 | 0.00 | 60 | 1020.1 |
| 20260901113554 | 71 | 211 | 5.2 | 7.8 | 0.00 | 0.00 | 0.00 | 61 | 1020.0 |
| 20260901113035 | 70 | 220 | 3.5 | 7.8 | 0.00 | 0.00 | 0.00 | 60 | 1020.1 |
| 20260901112033 | 72 | 216 | 3.5 | 7.0 | 0.00 | 0.00 | 0.00 | 56 | 1020.2 |
| 20260901111019 | 72 | 226 | 3.5 | 6.1 | 0.00 | 0.00 | 0.00 | 59 | 1020.3 |
| 20260901110521 | 71 | 214 | 1.7 | 5.2 | 0.00 | 0.00 | 0.00 | 59 | 1020.3 |
| 20260901110033 | 71 | 247 | 2.6 | 6.1 | 0.00 | 0.00 | 0.00 | 59 | 1020.3 |
| 20260901105031 | 72 | 237 | 4.3 | 7.0 | 0.00 | 0.00 | 0.00 | 59 | 1020.3 |
| 20260901104049 | 71 | 217 | 3.5 | 8.7 | 0.00 | 0.00 | 0.00 | 60 | 1020.4 |
| 20260901103028 | 70 | 260 | 3.5 | 7.8 | 0.00 | 0.00 | 0.00 | 63 | 1020.6 |
| 20260901102106 | 70 | 246 | 1.7 | 4.3 | 0.00 | 0.00 | 0.00 | 62 | 1020.7 |
| 20260901101529 | 70 | 223 | 4.3 | 7.0 | 0.00 | 0.00 | 0.00 | 62 | 1020.6 |
| 20260901101030 | 72 | 189 | 5.2 | 5.2 | 0.00 | 0.00 | 0.00 | 60 | 1020.6 |
| 20260901100518 | 72 | 230 | 3.5 | 6.1 | 0.00 | 0.00 | 0.00 | 60 | 1020.7 |
| 20260901095517 | 72 | 226 | 2.6 | 4.3 | 0.00 | 0.00 | 0.00 | 61 | 1020.7 |
| 20260901094535 | 70 | 233 | 3.5 | 5.2 | 0.00 | 0.00 | 0.00 | 63 | 1020.7 |
| 20260901093614 | 70 | 181 | 4.3 | 7.0 | 0.00 | 0.00 | 0.00 | 63 | 1020.7 |
| 20260901092533 | 69 | 178 | 3.5 | 7.0 | 0.00 | 0.00 | 0.00 | 65 | 1020.9 |
| 20260901091552 | 69 | 204 | 2.6 | 5.2 | 0.00 | 0.00 | 0.00 | 64 | 1020.8 |
| 20260901090530 | 69 | 215 | 3.5 | 7.0 | 0.00 | 0.00 | 0.00 | 65 | 1020.8 |
| 20260901085548 | 69 | 204 | 2.6 | 4.3 | 0.00 | 0.00 | 0.00 | 67 | 1020.6 |
| 20260901084528 | 68 | 220 | 0.9 | 3.5 | 0.00 | 0.00 | 0.00 | 71 | 1020.7 |
| 20260901083536 | 67 | 223 | 1.7 | 6.1 | 0.00 | 0.00 | 0.00 | 72 | 1020.8 |
| 20260901082532 | 65 | 152 | 1.7 | 2.6 | 0.00 | 0.00 | 0.00 | 75 | 1020.9 |
| 20260901081531 | 63 | 173 | 3.5 | 6.1 | 0.00 | 0.00 | 0.00 | 79 | 1020.8 |
| 20260901080529 | 60 | 38 | 1.7 | 3.5 | 0.00 | 0.00 | 0.00 | 87 | 1020.9 |
| 20260901075527 | 59 | 344 | 1.7 | 1.7 | 0.00 | 0.00 | 0.00 | 88 | 1020.7 |
| 20260901074525 | 60 | 61 | 0.0 | 1.7 | 0.00 | 0.00 | 0.00 | 84 | 1020.6 |
| 20260901073523 | 60 | 74 | 0.9 | 1.7 | 0.00 | 0.00 | 0.00 | 81 | 1020.6 |
| 20260901072522 | 61 | 39 | 0.9 | 2.6 | 0.00 | 0.00 | 0.00 | 79 | 1020.7 |
| 20260901071520 | 60 | 45 | 2.6 | 4.3 | 0.00 | 0.00 | 0.00 | 81 | 1020.5 |
| 20260901070538 | 58 | 132 | 0.9 | 2.6 | 0.00 | 0.00 | 0.00 | 81 | 1020.6 |
| 20260901065516 | 58 | 86 | 1.7 | 3.5 | 0.00 | 0.00 | 0.00 | 81 | 1020.5 |
| 20260901064534 | 56 | 55 | 1.7 | 1.7 | 0.00 | 0.00 | 0.00 | 83 | 1020.4 |
| 20260901063532 | 55 | 50 | 2.6 | 5.2 | 0.00 | 0.00 | 0.00 | 84 | 1020.3 |
| 20260901062531 | 54 | 47 | 3.5 | 6.1 | 0.00 | 0.00 | 0.00 | 86 | 1020.2 |
| 20260901061528 | 51 | 52 | 1.7 | 2.6 | 0.00 | 0.00 | 0.00 | 92 | 1020.2 |
| 20260901060527 | 50 | 84 | 0.9 | 2.6 | 0.00 | 0.00 | 0.00 | 93 | 1020.1 |
| 20260901055525 | 50 | 58 | 1.7 | 2.6 | 0.00 | 0.00 | 0.00 | 92 | 1020.2 |
| 20260901054523 | 49 | 46 | 0.9 | 2.6 | 0.00 | 0.00 | 0.00 | 92 | 1020.0 |
| 20260901053541 | 49 | 60 | 1.7 | 2.6 | 0.00 | 0.00 | 0.00 | 92 | 1019.9 |